[[{"header":{"parameterUnit":"m.s-1","parameterCategory":2,"la1":30.2991,"la2":30.254,"lo1":-89.0895,"lo2":-89.0444,"dy":0.0017,"dx":0.0017,"nx":28,"ny":28,"refTime":"2024-07-22T09:00:00:Z","depth":"0","parameterNumber":2,"parameterNumberName":"U-component_of_CURRENTS"},"data":[0,0,0,0,0,0,0,0,0,0,0,0,0,0,0,0,0,0,0,0,0,0,0,0,0,0,0,0,0,0,0,0,0,0,0,0,0,0,0,0,0,0,0,0,0,0,0,0,0,0,0,0,0,0,0,0,0,0,-0.2667,-0.2667,0,-0.2671,-0.2671,-0.2671,-0.2615,-0.2614,-0.2613,-0.2611,-0.2498,-0.2496,-0.2494,0,0,0,0,0,0,0,0,0,0,0,0,0,-0.2557,-0.256,-0.2667,-0.2667,-0.2667,-0.2671,-0.2671,-0.2671,-0.2615,-0.2614,-0.2612,-0.2611,-0.2499,-0.2497,-0.2494,0,0,0,0,0,0,0,0,0,0,0,0,0,-0.2584,-0.256,-0.2667,-0.2643,-0.2641,-0.2671,-0.2671,-0.2671,-0.2615,-0.2614,-0.2612,-0.261,-0.25,-0.2497,-0.2494,-0.2512,0,0,-0.2485,-0.2484,0,0,0,0,0,0,0,0,-0.2583,-0.2588,-0.2646,-0.2645,-0.2643,-0.2644,-0.2591,-0.2613,-0.2616,-0.2621,-0.2611,-0.2609,-0.254,-0.2534,-0.2535,-0.2506,-0.2501,-0.2485,-0.2483,-0.2482,-0.2481,0,0,0,0,0,0,0,-0.2581,-0.2587,-0.2665,-0.2647,-0.2645,-0.2615,-0.2616,-0.2595,-0.2585,-0.2621,-0.2618,-0.2625,-0.2537,-0.2538,-0.2531,-0.25,-0.2485,-0.2482,-0.2481,-0.248,-0.2519,-0.2522,0,0,0,0,0,0,-0.2594,-0.2586,-0.2665,-0.2665,-0.2612,-0.2618,-0.262,-0.2642,-0.2588,-0.258,-0.2626,-0.2622,-0.2543,-0.2535,-0.2527,-0.2559,-0.2482,-0.2479,-0.2478,-0.2516,-0.252,-0.2523,0,0,0,0,0,0,-0.2592,-0.2601,-0.2664,-0.2627,-0.2634,-0.2623,-0.2648,-0.2643,-0.2638,-0.2594,-0.2583,-0.2625,-0.2542,-0.2531,-0.2526,-0.2553,-0.2478,-0.2475,-0.2513,-0.2517,-0.2521,-0.2614,0,0,0,0,0,0,-0.2589,-0.2601,-0.2618,-0.2629,-0.2636,-0.2703,-0.265,-0.2645,-0.2648,-0.2642,-0.259,-0.2578,-0.2539,-0.2531,-0.2523,-0.2548,-0.2473,-0.2509,-0.2515,-0.252,-0.2607,-0.2621,-0.2632,0,0,0,0,0,-0.2585,-0.2629,-0.2619,-0.2629,-0.2662,-0.2706,-0.2707,-0.2689,-0.2649,-0.2671,-0.2633,-0.2579,-0.2559,-0.2531,-0.2521,-0.2546,-0.2507,-0.2513,-0.2519,-0.2602,-0.2618,-0.2632,0,0,0,0,0,0,-0.2588,-0.2628,-0.2617,-0.2669,-0.2692,-0.2698,-0.2716,-0.2695,-0.2683,-0.2664,-0.2607,-0.2595,-0.2609,-0.2573,-0.2544,-0.2579,-0.2527,-0.2532,-0.2593,-0.2608,-0.262,-0.2602,-0.2471,0,0,0,0,0,-0.26,-0.264,-0.2668,-0.2706,-0.2723,-0.2715,-0.2725,-0.2714,-0.2707,-0.2699,-0.2665,-0.2635,-0.2632,-0.2614,-0.2608,-0.2614,-0.2582,-0.263,-0.2642,-0.2653,-0.2636,-0.263,-0.2639,-0.2543,-0.2543,-0.2543,0,0,-0.2606,-0.2637,-0.2655,-0.2709,-0.2718,-0.2758,-0.2717,-0.2744,-0.2763,-0.2688,-0.2698,-0.2679,-0.2649,-0.2669,-0.267,-0.2634,-0.2672,-0.2661,-0.2669,-0.2646,-0.2637,-0.2646,-0.2654,-0.2547,-0.2547,-0.2546,0,0,-0.2643,-0.2674,-0.2714,-0.2746,-0.2778,-0.2789,-0.28,-0.2812,-0.2806,-0.2824,-0.2782,-0.2774,-0.2764,-0.2745,-0.2734,-0.281,-0.2749,-0.282,-0.2847,-0.2843,-0.285,-0.2855,-0.2854,-0.2858,-0.2812,-0.2813,-0.2813,0,-0.2638,-0.2702,-0.2731,-0.278,-0.2805,-0.2807,-0.2845,-0.2861,-0.2865,-0.2856,-0.2841,-0.2823,-0.2799,-0.2802,-0.2836,-0.2833,-0.2822,-0.2788,-0.2856,-0.286,-0.2864,-0.2861,-0.2864,-0.2818,-0.2817,-0.2817,-0.2816,0,-0.2703,-0.2751,-0.2784,-0.2846,-0.2882,-0.2923,-0.2952,-0.297,-0.2959,-0.2952,-0.2957,-0.2934,-0.2909,-0.2921,-0.2898,-0.2919,-0.2904,-0.2881,-0.2808,-0.2878,-0.2872,-0.2874,-0.2825,-0.2823,-0.2822,-0.2821,0,0,-0.2668,-0.2802,-0.2801,-0.2838,-0.2916,-0.2944,-0.2998,-0.3031,-0.3029,-0.3041,-0.3034,-0.3045,-0.3007,-0.2993,-0.2966,-0.2959,-0.2995,-0.2934,-0.2931,-0.2916,-0.2993,-0.2782,-0.2763,-0.2985,-0.2985,-0.2985,-0.2987,0,-0.269,-0.2791,-0.2851,-0.2925,-0.2978,-0.3014,-0.3055,-0.3078,-0.3088,-0.309,-0.3067,-0.306,-0.3045,-0.3024,-0.3025,-0.3006,-0.3,-0.2996,-0.294,-0.2938,-0.2727,-0.2757,-0.2639,-0.2611,-0.2988,-0.2988,-0.2988,0,-0.2699,-0.2778,-0.2865,-0.2957,-0.2976,-0.3017,-0.3056,-0.3094,-0.3112,-0.311,-0.3103,-0.3087,-0.3091,-0.306,-0.3057,-0.3058,-0.303,-0.301,-0.3009,-0.2767,-0.2727,-0.2599,-0.26,-0.2593,-0.299,-0.299,-0.299,0,-0.2632,-0.276,-0.283,-0.2869,-0.2989,-0.3008,-0.3046,-0.3079,-0.3087,-0.3111,-0.3109,-0.3116,-0.3106,-0.3095,-0.3039,-0.3068,-0.3005,-0.3042,-0.2824,-0.2811,-0.267,-0.264,-0.263,-0.3018,-0.3018,-0.3018,-0.3018,0,-0.2616,-0.2654,-0.2803,-0.2842,-0.2884,-0.2971,-0.2982,-0.302,-0.3052,-0.3055,-0.3101,-0.3088,-0.3113,-0.3074,-0.3046,-0.2907,-0.301,-0.2814,-0.2783,-0.2701,-0.2675,-0.2624,-0.2668,-0.3018,-0.3018,-0.3018,-0.3018,0,-0.2503,-0.2617,-0.2695,-0.283,-0.2858,-0.2873,-0.2933,-0.2937,-0.2995,-0.3006,-0.3015,-0.3072,-0.3013,-0.2973,-0.2934,-0.2879,-0.2724,-0.2701,-0.2587,-0.2539,-0.2327,-0.2379,-0.2303,-0.2237,-0.2513,-0.2507,-0.2502,0,-0.2448,-0.2493,-0.2645,-0.2672,-0.2726,-0.2767,-0.2785,-0.2875,-0.2895,-0.2976,-0.2977,-0.2944,-0.2867,-0.2713,-0.258,-0.2441,-0.2486,-0.2278,-0.229,-0.2266,-0.2308,-0.2367,-0.2326,-0.2187,-0.2181,-0.2175,-0.2171,0,-0.2325,-0.2387,-0.2445,-0.2534,-0.2577,-0.2616,-0.2667,-0.2681,-0.2792,-0.2805,-0.2817,-0.2764,-0.2609,-0.239,-0.217,-0.2095,-0.222,-0.2153,-0.2184,-0.2066,-0.2082,-0.2018,-0.2257,-0.2121,-0.2126,-0.2129,-0.2132,-0.2134,-0.2176,-0.2191,-0.2285,-0.2343,-0.2401,-0.2436,-0.2394,-0.2463,-0.2462,-0.242,-0.2527,-0.2324,-0.2253,-0.1905,-0.1832,-0.1676,-0.1793,-0.1672,-0.1751,-0.1823,-0.1699,-0.1785,-0.1558,-0.156,-0.1561,-0.1562,-0.1564,0,-0.1973,-0.2026,-0.2083,-0.215,-0.2144,-0.2242,-0.2279,-0.2191,-0.2119,-0.2072,-0.1978,-0.1733,-0.1582,-0.1537,-0.144,-0.1355,-0.1386,-0.1337,-0.1474,-0.146,-0.158,-0.1498,-0.1178,-0.1178,-0.1178,-0.1178,-0.1178,-0.1178,-0.1863,-0.1848,-0.1915,-0.1871,-0.1905,-0.1821,-0.1795,-0.1692,-0.1596,-0.1328,-0.111,-0.0958,-0.1073,-0.1373,-0.1361,-0.1288,-0.1318,-0.122,-0.1284,-0.146,-0.1502,-0.1541,-0.1474,-0.1154,-0.1154,-0.1115,-0.1115,-0.1116]},{"header":{"parameterUnit":"m.s-1","parameterCategory":2,"la1":30.2991,"la2":30.254,"lo1":-89.0895,"lo2":-89.0444,"dy":0.0017,"dx":0.0017,"nx":28,"ny":28,"refTime":"2024-07-22T09:00:00:Z","depth":"0","parameterNumber":3,"parameterNumberName":"V-component_of_CURRENTS"},"data":[0,0,0,0,0,0,0,0,0,0,0,0,0,0,0,0,0,0,0,0,0,0,0,0,0,0,0,0,0,0,0,0,0,0,0,0,0,0,0,0,0,0,0,0,0,0,0,0,0,0,0,0,0,0,0,0,0,0,-0.0632,-0.0632,0,-0.0518,-0.0517,-0.0515,-0.0412,-0.0411,-0.041,-0.041,-0.0305,-0.0303,-0.0301,0,0,0,0,0,0,0,0,0,0,0,0,0,-0.0687,-0.0687,-0.0633,-0.0631,-0.063,-0.0518,-0.0516,-0.0515,-0.0412,-0.0411,-0.041,-0.0409,-0.0306,-0.0303,-0.0301,0,0,0,0,0,0,0,0,0,0,0,0,0,-0.0624,-0.0687,-0.0633,-0.0569,-0.0562,-0.0519,-0.0516,-0.0514,-0.0412,-0.0411,-0.041,-0.0409,-0.0306,-0.0303,-0.03,-0.0309,0,0,-0.0291,-0.029,0,0,0,0,0,0,0,0,-0.0628,-0.0621,-0.0579,-0.0573,-0.0566,-0.0481,-0.0497,-0.0447,-0.0413,-0.0465,-0.041,-0.0408,-0.0368,-0.036,-0.0336,-0.0304,-0.0299,-0.0291,-0.0289,-0.0288,-0.0287,0,0,0,0,0,0,0,-0.0632,-0.0625,-0.0583,-0.0578,-0.057,-0.052,-0.051,-0.0487,-0.0423,-0.0461,-0.0454,-0.0447,-0.0364,-0.0339,-0.0333,-0.0298,-0.0291,-0.0289,-0.0287,-0.0286,-0.0237,-0.0237,0,0,0,0,0,0,-0.0659,-0.063,-0.0587,-0.058,-0.0598,-0.0521,-0.0509,-0.0507,-0.0423,-0.041,-0.0449,-0.0443,-0.0345,-0.0336,-0.0329,-0.0338,-0.0288,-0.0285,-0.0284,-0.0236,-0.0237,-0.0237,0,0,0,0,0,0,-0.0661,-0.0657,-0.0592,-0.0605,-0.0594,-0.0522,-0.0519,-0.0505,-0.0477,-0.0414,-0.04,-0.0436,-0.0343,-0.0333,-0.0313,-0.0333,-0.0284,-0.0281,-0.0236,-0.0236,-0.0237,-0.0353,0,0,0,0,0,0,-0.0663,-0.0658,-0.0667,-0.0607,-0.0594,-0.0577,-0.0521,-0.0504,-0.0477,-0.0469,-0.0399,-0.0388,-0.0342,-0.0318,-0.031,-0.0328,-0.0279,-0.0235,-0.0236,-0.0237,-0.0348,-0.0357,-0.0365,0,0,0,0,0,-0.0666,-0.0688,-0.0669,-0.0664,-0.0609,-0.0578,-0.0566,-0.0507,-0.0479,-0.0475,-0.0429,-0.039,-0.0317,-0.0317,-0.0307,-0.0324,-0.0235,-0.0236,-0.0237,-0.0345,-0.0356,-0.0365,0,0,0,0,0,0,-0.0721,-0.0678,-0.0656,-0.0665,-0.0629,-0.0562,-0.0558,-0.0518,-0.0476,-0.0471,-0.0403,-0.039,-0.0375,-0.0336,-0.0336,-0.031,-0.0267,-0.0266,-0.0352,-0.0362,-0.037,-0.0415,-0.0277,0,0,0,0,0,-0.0741,-0.0743,-0.0693,-0.0703,-0.0688,-0.0625,-0.0606,-0.0569,-0.0525,-0.0503,-0.0454,-0.0406,-0.0373,-0.0358,-0.0319,-0.0317,-0.0265,-0.0316,-0.0325,-0.0332,-0.0361,-0.0345,-0.0356,-0.0241,-0.0241,-0.0241,0,0,-0.0769,-0.0745,-0.0748,-0.0715,-0.0681,-0.0684,-0.0609,-0.0592,-0.0595,-0.0503,-0.0493,-0.0436,-0.0378,-0.0366,-0.0356,-0.0337,-0.0318,-0.0334,-0.0341,-0.0366,-0.0348,-0.0359,-0.037,-0.0241,-0.0241,-0.0241,0,0,-0.0829,-0.0803,-0.0824,-0.0802,-0.0765,-0.0731,-0.0733,-0.0671,-0.0641,-0.0626,-0.0559,-0.0525,-0.0468,-0.0435,-0.0411,-0.0447,-0.0362,-0.0418,-0.0503,-0.0488,-0.0498,-0.0507,-0.0375,-0.0371,-0.0425,-0.0425,-0.0426,0,-0.0866,-0.0886,-0.0826,-0.0841,-0.0847,-0.0763,-0.0797,-0.0756,-0.0697,-0.0691,-0.064,-0.0563,-0.0508,-0.0506,-0.0509,-0.0471,-0.0408,-0.0473,-0.0502,-0.051,-0.0517,-0.038,-0.0375,-0.0431,-0.043,-0.043,-0.0429,0,-0.094,-0.0956,-0.0969,-0.0966,-0.096,-0.0976,-0.0923,-0.0905,-0.0858,-0.0818,-0.0791,-0.0704,-0.0665,-0.0628,-0.058,-0.0598,-0.0512,-0.0515,-0.0486,-0.0537,-0.0387,-0.0379,-0.0439,-0.0437,-0.0436,-0.0434,0,0,-0.1026,-0.1026,-0.1029,-0.1058,-0.1034,-0.1041,-0.105,-0.1043,-0.1049,-0.0974,-0.0978,-0.0909,-0.0848,-0.0817,-0.0737,-0.0714,-0.067,-0.0644,-0.064,-0.0527,-0.0548,-0.0393,-0.0367,-0.0687,-0.0688,-0.0689,-0.0394,0,-0.1107,-0.1178,-0.1151,-0.1226,-0.1264,-0.1209,-0.1227,-0.1204,-0.1154,-0.1126,-0.1037,-0.1004,-0.0922,-0.0891,-0.0862,-0.0722,-0.0668,-0.0744,-0.0505,-0.0495,-0.0368,-0.0363,-0.0307,-0.0035,-0.0386,-0.0384,-0.0383,0,-0.1186,-0.1229,-0.1322,-0.1367,-0.1378,-0.1406,-0.1425,-0.1421,-0.136,-0.1316,-0.1266,-0.1177,-0.1105,-0.1036,-0.0847,-0.0896,-0.0746,-0.0628,-0.0615,-0.0441,-0.0331,-0.0056,-0.0007,0.0154,-0.0371,-0.0372,-0.0373,0,-0.1282,-0.1345,-0.1434,-0.1451,-0.1483,-0.1516,-0.1522,-0.1488,-0.1487,-0.1427,-0.141,-0.1309,-0.1222,-0.1086,-0.0808,-0.0845,-0.0558,-0.058,-0.0284,-0.0265,-0.0157,-0.0128,0.0049,-0.0477,-0.0478,-0.0478,-0.0479,0,-0.1378,-0.1441,-0.1486,-0.1535,-0.1631,-0.1614,-0.1675,-0.1653,-0.162,-0.1618,-0.1514,-0.1449,-0.1244,-0.1038,-0.083,-0.0482,-0.0566,-0.0288,-0.0205,-0.0181,-0.016,0.0033,0.0086,-0.0467,-0.047,-0.0472,-0.0474,0,-0.1445,-0.148,-0.1578,-0.1649,-0.1676,-0.1732,-0.1766,-0.1793,-0.1752,-0.1738,-0.1726,-0.1539,-0.1239,-0.0958,-0.0644,-0.0468,-0.0043,-0.0042,0.0046,0.013,0.0497,0.0542,0.082,0.0942,0.0294,0.0299,0.0304,0,-0.1475,-0.1539,-0.1654,-0.1712,-0.1744,-0.1816,-0.1862,-0.1857,-0.1876,-0.1765,-0.176,-0.1474,-0.1201,-0.0624,-0.0264,0.0177,0.025,0.0439,0.0332,0.0541,0.065,0.0657,0.0736,0.0485,0.0491,0.0495,0.0499,0,-0.1519,-0.1561,-0.1635,-0.1775,-0.1853,-0.1938,-0.1996,-0.2031,-0.1997,-0.1945,-0.1746,-0.15,-0.0898,-0.0339,0.0221,0.0436,0.0561,0.0545,0.0691,0.0759,0.0842,0.0992,0.0353,0.0539,0.0535,0.0532,0.053,0.0528,-0.151,-0.158,-0.1683,-0.1806,-0.1915,-0.2018,-0.2047,-0.2066,-0.2049,-0.1883,-0.1666,-0.1151,-0.0433,0.0394,0.0628,0.1068,0.0968,0.1138,0.1176,0.1165,0.1253,0.0766,0.1065,0.1064,0.1064,0.1063,0.1062,0,-0.1457,-0.1562,-0.1699,-0.1846,-0.1963,-0.2015,-0.21,-0.2056,-0.1974,-0.171,-0.1402,-0.0395,0.0274,0.0861,0.1462,0.1662,0.1648,0.1731,0.1701,0.175,0.1273,0.1247,0.168,0.168,0.168,0.168,0.168,0.1679,-0.1424,-0.1535,-0.1638,-0.1831,-0.1934,-0.2013,-0.2032,-0.1931,-0.1719,-0.1134,-0.0503,0.0023,0.0851,0.1646,0.211,0.2131,0.2275,0.2265,0.2359,0.1965,0.1909,0.1855,0.1842,0.2393,0.2394,0.2798,0.2802,0.2805]}],[{"header":{"parameterUnit":"m.s-1","parameterCategory":2,"la1":30.2991,"la2":30.254,"lo1":-89.0895,"lo2":-89.0444,"dy":0.0017,"dx":0.0017,"nx":28,"ny":28,"refTime":"2024-07-22T09:00:00:Z","depth":"2","parameterNumber":2,"parameterNumberName":"U-component_of_CURRENTS"},"data":[0,0,0,0,0,0,0,0,0,0,0,0,0,0,0,0,0,0,0,0,0,0,0,0,0,0,0,0,0,0,0,0,0,0,0,0,0,0,0,0,0,0,0,0,0,0,0,0,0,0,0,0,0,0,0,0,0,0,-0.2242,-0.2243,0,-0.2297,-0.2297,-0.2298,-0.2313,-0.2313,-0.2312,-0.2312,-0.2366,-0.2368,-0.2369,0,0,0,0,0,0,0,0,0,0,0,0,0,-0.2145,-0.2146,-0.2242,-0.2243,-0.2243,-0.2297,-0.2297,-0.2298,-0.2313,-0.2313,-0.2312,-0.2312,-0.2366,-0.2368,-0.237,0,0,0,0,0,0,0,0,0,0,0,0,0,-0.2191,-0.2147,-0.2242,-0.2258,-0.226,-0.2297,-0.2297,-0.2298,-0.2313,-0.2313,-0.2312,-0.2312,-0.2365,-0.2367,-0.237,-0.2393,0,0,-0.2378,-0.2379,0,0,0,0,0,0,0,0,-0.2189,-0.2195,-0.2255,-0.2257,-0.2259,-0.2298,-0.2283,-0.233,-0.2313,-0.2292,-0.2312,-0.2312,-0.2344,-0.2348,-0.2359,-0.2396,-0.2398,-0.2378,-0.2379,-0.238,-0.2381,0,0,0,0,0,0,0,-0.2186,-0.2193,-0.2263,-0.2255,-0.2258,-0.226,-0.2266,-0.2292,-0.2319,-0.2294,-0.2295,-0.2302,-0.2345,-0.2356,-0.236,-0.2399,-0.2378,-0.238,-0.2382,-0.2383,-0.245,-0.245,0,0,0,0,0,0,-0.2181,-0.219,-0.2261,-0.2265,-0.2223,-0.2262,-0.2269,-0.2285,-0.2319,-0.2324,-0.2303,-0.2303,-0.2352,-0.2357,-0.2362,-0.2397,-0.238,-0.2383,-0.2384,-0.245,-0.245,-0.245,0,0,0,0,0,0,-0.2179,-0.2187,-0.2259,-0.2228,-0.2238,-0.2265,-0.2283,-0.2287,-0.2302,-0.2326,-0.233,-0.2313,-0.2352,-0.2358,-0.2387,-0.2399,-0.2384,-0.2386,-0.2449,-0.245,-0.245,-0.2463,0,0,0,0,0,0,-0.2176,-0.2186,-0.2195,-0.2228,-0.2239,-0.228,-0.2283,-0.2288,-0.2307,-0.2307,-0.2337,-0.2341,-0.2352,-0.2383,-0.2389,-0.2402,-0.2388,-0.2449,-0.245,-0.245,-0.2463,-0.2464,-0.2465,0,0,0,0,0,-0.2173,-0.2187,-0.2196,-0.2204,-0.2252,-0.2281,-0.2286,-0.2303,-0.2307,-0.2315,-0.2335,-0.234,-0.239,-0.2386,-0.2393,-0.2406,-0.2449,-0.2449,-0.245,-0.2462,-0.2464,-0.2465,0,0,0,0,0,0,-0.2149,-0.2191,-0.2201,-0.2227,-0.2251,-0.2283,-0.2296,-0.2307,-0.233,-0.2335,-0.2351,-0.2357,-0.2383,-0.2393,-0.2388,-0.2425,-0.2418,-0.242,-0.2424,-0.2426,-0.2428,-0.2435,-0.239,0,0,0,0,0,-0.2149,-0.2169,-0.2206,-0.2225,-0.2242,-0.227,-0.2284,-0.2299,-0.2324,-0.2333,-0.2349,-0.2369,-0.2392,-0.2407,-0.2424,-0.2453,-0.2447,-0.2463,-0.2465,-0.2466,-0.2476,-0.2476,-0.2479,-0.2452,-0.2452,-0.2452,0,0,-0.2145,-0.2169,-0.2181,-0.222,-0.2244,-0.2278,-0.2278,-0.2306,-0.2332,-0.2337,-0.237,-0.2376,-0.2399,-0.2426,-0.2439,-0.2438,-0.2466,-0.2467,-0.2468,-0.2477,-0.2477,-0.248,-0.2482,-0.2453,-0.2453,-0.2453,0,0,-0.2148,-0.2172,-0.2193,-0.222,-0.2258,-0.2281,-0.229,-0.2325,-0.2338,-0.2371,-0.2377,-0.239,-0.2427,-0.244,-0.2455,-0.2477,-0.247,-0.248,-0.2501,-0.2501,-0.2503,-0.2505,-0.248,-0.248,-0.2484,-0.2484,-0.2484,0,-0.2143,-0.2176,-0.2201,-0.2233,-0.2258,-0.2285,-0.2318,-0.2343,-0.2377,-0.239,-0.2383,-0.2426,-0.2436,-0.2475,-0.2478,-0.2481,-0.2473,-0.2494,-0.2503,-0.2505,-0.2507,-0.2481,-0.248,-0.2485,-0.2485,-0.2485,-0.2485,0,-0.2165,-0.2197,-0.2213,-0.2265,-0.2295,-0.2325,-0.2369,-0.2392,-0.2408,-0.2426,-0.2454,-0.2462,-0.2484,-0.2487,-0.2494,-0.2515,-0.25,-0.2501,-0.2499,-0.251,-0.2482,-0.2481,-0.2486,-0.2486,-0.2486,-0.2486,0,0,-0.2136,-0.2215,-0.2218,-0.2251,-0.2315,-0.2342,-0.2393,-0.2439,-0.247,-0.2485,-0.2513,-0.2536,-0.2525,-0.254,-0.254,-0.2543,-0.2534,-0.2531,-0.2531,-0.2506,-0.2518,-0.2423,-0.2413,-0.2539,-0.254,-0.254,-0.2485,0,-0.2144,-0.2202,-0.2243,-0.2302,-0.2339,-0.2389,-0.2435,-0.248,-0.2507,-0.2536,-0.2544,-0.2566,-0.2552,-0.2557,-0.2559,-0.2547,-0.2537,-0.2548,-0.2511,-0.251,-0.2424,-0.2411,-0.2232,-0.2161,-0.2484,-0.2484,-0.2484,0,-0.2143,-0.2186,-0.2242,-0.2327,-0.2349,-0.2387,-0.2461,-0.2505,-0.2559,-0.2578,-0.2598,-0.2603,-0.2612,-0.2594,-0.2576,-0.2585,-0.2553,-0.2536,-0.2534,-0.2444,-0.2414,-0.2206,-0.2148,-0.2483,-0.2483,-0.2483,-0.2483,0,-0.2093,-0.218,-0.2222,-0.2251,-0.2353,-0.2385,-0.2435,-0.2504,-0.254,-0.2592,-0.2612,-0.2631,-0.2628,-0.261,-0.2566,-0.2576,-0.2534,-0.2538,-0.242,-0.2412,-0.2252,-0.2229,-0.2519,-0.2519,-0.2519,-0.2519,-0.252,0,-0.2078,-0.2109,-0.22,-0.2226,-0.2276,-0.2358,-0.2407,-0.2465,-0.2535,-0.2559,-0.2615,-0.2617,-0.2634,-0.2611,-0.2574,-0.2481,-0.2532,-0.2417,-0.2393,-0.2248,-0.2227,-0.2508,-0.2508,-0.2517,-0.2518,-0.2518,-0.2519,0,-0.2009,-0.2075,-0.2122,-0.2223,-0.2252,-0.2281,-0.2377,-0.2408,-0.2495,-0.2526,-0.2541,-0.26,-0.2564,-0.2561,-0.252,-0.2468,-0.2405,-0.2358,-0.2174,-0.2129,-0.2283,-0.2284,-0.2225,-0.2221,-0.2218,-0.2215,-0.2213,0,-0.1979,-0.1994,-0.2085,-0.2102,-0.2142,-0.22,-0.2235,-0.2355,-0.2386,-0.2487,-0.2484,-0.25,-0.2451,-0.2372,-0.2295,-0.2207,-0.2298,-0.2001,-0.1987,-0.227,-0.2254,-0.226,-0.2265,-0.1772,-0.1766,-0.1762,-0.1758,0,-0.1905,-0.193,-0.1967,-0.1997,-0.2034,-0.2078,-0.2138,-0.2162,-0.2285,-0.2317,-0.2322,-0.2299,-0.2247,-0.207,-0.1991,-0.1922,-0.2006,-0.1902,-0.2239,-0.1879,-0.184,-0.1826,-0.1846,-0.1717,-0.1721,-0.1724,-0.1726,-0.1728,-0.1826,-0.1819,-0.1852,-0.1868,-0.1911,-0.1921,-0.1898,-0.1958,-0.1978,-0.1984,-0.2078,-0.1986,-0.1982,-0.1746,-0.1648,-0.1582,-0.1725,-0.165,-0.1666,-0.1687,-0.1649,-0.1607,-0.1431,-0.1433,-0.1436,-0.1437,-0.1439,0,-0.1716,-0.1712,-0.1718,-0.1731,-0.1707,-0.1779,-0.18,-0.1737,-0.1678,-0.1717,-0.169,-0.1523,-0.1407,-0.141,-0.1236,-0.1207,-0.1214,-0.116,-0.1171,-0.1211,-0.1247,-0.119,-0.0849,-0.0847,-0.0846,-0.0845,0,0,-0.166,-0.1613,-0.1608,-0.1519,-0.1517,-0.1434,-0.1405,-0.1334,-0.1312,-0.1216,-0.1178,-0.1296,-0.134,-0.1091,-0.1039,-0.0907,-0.1048,-0.0858,-0.1328,-0.1378,-0.1412,-0.1522,-0.1477,0,0,0,0,0]},{"header":{"parameterUnit":"m.s-1","parameterCategory":2,"la1":30.2991,"la2":30.254,"lo1":-89.0895,"lo2":-89.0444,"dy":0.0017,"dx":0.0017,"nx":28,"ny":28,"refTime":"2024-07-22T09:00:00:Z","depth":"2","parameterNumber":3,"parameterNumberName":"V-component_of_CURRENTS"},"data":[0,0,0,0,0,0,0,0,0,0,0,0,0,0,0,0,0,0,0,0,0,0,0,0,0,0,0,0,0,0,0,0,0,0,0,0,0,0,0,0,0,0,0,0,0,0,0,0,0,0,0,0,0,0,0,0,0,0,-0.0174,-0.0174,0,-0.0114,-0.0113,-0.0112,-0.0056,-0.0055,-0.0055,-0.0054,0.0076,0.0079,0.0082,0,0,0,0,0,0,0,0,0,0,0,0,0,-0.0196,-0.0196,-0.0174,-0.0174,-0.0173,-0.0114,-0.0113,-0.0112,-0.0056,-0.0055,-0.0054,-0.0054,0.0075,0.0079,0.0082,0,0,0,0,0,0,0,0,0,0,0,0,0,-0.0165,-0.0196,-0.0174,-0.0139,-0.0135,-0.0114,-0.0113,-0.0112,-0.0056,-0.0055,-0.0054,-0.0053,0.0074,0.0078,0.0083,0.0093,0,0,0.0096,0.0098,0,0,0,0,0,0,0,0,-0.0167,-0.0164,-0.0145,-0.0141,-0.0137,-0.0093,-0.0073,-0.0041,-0.0056,-0.0084,-0.0054,-0.0053,0.0025,0.0033,0.0044,0.0099,0.0104,0.0096,0.0099,0.0101,0.0102,0,0,0,0,0,0,0,-0.0169,-0.0166,-0.0149,-0.0144,-0.014,-0.0111,-0.0106,-0.0067,-0.0033,-0.0082,-0.0078,-0.0074,0.0027,0.0039,0.0047,0.0106,0.0096,0.01,0.0103,0.0105,0.0205,0.0205,0,0,0,0,0,0,-0.0183,-0.0169,-0.0151,-0.0147,-0.0152,-0.0112,-0.0106,-0.0107,-0.0035,-0.0024,-0.0075,-0.0072,0.0031,0.0042,0.0052,0.0088,0.0101,0.0105,0.0108,0.0205,0.0205,0.0205,0,0,0,0,0,0,-0.0184,-0.0182,-0.0153,-0.0157,-0.0152,-0.0113,-0.0114,-0.0106,-0.0093,-0.0031,-0.0018,-0.007,0.0032,0.0046,0.0091,0.0093,0.0107,0.0111,0.0205,0.0205,0.0205,0.0147,0,0,0,0,0,0,-0.0185,-0.0183,-0.0189,-0.0159,-0.0152,-0.0147,-0.0114,-0.0105,-0.0093,-0.0088,-0.0022,-0.0009,0.0034,0.0084,0.0095,0.0099,0.0114,0.0205,0.0205,0.0205,0.0148,0.0145,0.0141,0,0,0,0,0,-0.0186,-0.02,-0.019,-0.0188,-0.0162,-0.0147,-0.0142,-0.0109,-0.0094,-0.0093,-0.0043,-0.0011,0.0092,0.0087,0.01,0.0106,0.0205,0.0205,0.0205,0.015,0.0145,0.0141,0,0,0,0,0,0,-0.0212,-0.0195,-0.0183,-0.0191,-0.0173,-0.0138,-0.0137,-0.0116,-0.0079,-0.0072,-0.001,0.0006,0.0044,0.0081,0.0074,0.0134,0.0153,0.0156,0.0107,0.0103,0.01,0.0094,0.0118,0,0,0,0,0,-0.0223,-0.0229,-0.0205,-0.0212,-0.0205,-0.0173,-0.0164,-0.0144,-0.0109,-0.0092,-0.0045,0.0007,0.0053,0.0083,0.0124,0.0158,0.0198,0.017,0.0166,0.0163,0.0167,0.0233,0.0236,0.0205,0.0205,0.0205,0,0,-0.0235,-0.0228,-0.023,-0.0218,-0.0201,-0.0198,-0.0165,-0.0158,-0.0148,-0.0083,-0.0053,-0.0007,0.0057,0.0095,0.0116,0.013,0.0189,0.0163,0.0159,0.0166,0.0233,0.0237,0.0239,0.0205,0.0205,0.0205,0,0,-0.0269,-0.0257,-0.0274,-0.0264,-0.0249,-0.0223,-0.0225,-0.0193,-0.0169,-0.014,-0.0088,-0.0039,0.0023,0.0076,0.0111,0.0113,0.0162,0.0121,0.0107,0.017,0.0173,0.0177,0.0212,0.0219,0.0125,0.0125,0.0125,0,-0.0285,-0.0304,-0.0276,-0.029,-0.0285,-0.0238,-0.0251,-0.0221,-0.0177,-0.0151,-0.0138,-0.0032,0.0017,0.0083,0.0084,0.0106,0.014,0.0116,0.0165,0.017,0.0174,0.021,0.0219,0.0122,0.0123,0.0123,0.0123,0,-0.033,-0.0343,-0.0353,-0.035,-0.0338,-0.0344,-0.03,-0.0278,-0.0243,-0.0202,-0.0141,-0.007,-0.0003,0.0018,0.0054,0.0111,0.0122,0.0146,0.0174,0.0174,0.0211,0.0221,0.0118,0.0119,0.012,0.0121,0,0,-0.0366,-0.0383,-0.0386,-0.0402,-0.0373,-0.0372,-0.0344,-0.0303,-0.0279,-0.0221,-0.0179,-0.0097,-0.0052,-0.0011,0.0044,0.0104,0.0156,0.0134,0.0138,0.0163,0.0277,0.0297,0.031,0.019,0.0192,0.0193,0.0283,0,-0.0409,-0.0462,-0.0443,-0.0474,-0.0495,-0.0441,-0.0417,-0.0369,-0.031,-0.0255,-0.0162,-0.0105,-0.0064,-0.0032,0.0034,0.013,0.0183,0.0128,0.0279,0.0283,0.0297,0.0323,0.03,0.0381,0.0293,0.0295,0.0296,0,-0.0455,-0.0487,-0.0536,-0.0546,-0.0546,-0.0547,-0.0497,-0.0471,-0.0367,-0.032,-0.0234,-0.0156,-0.0056,-0.0026,0.0137,0.0099,0.0179,0.0251,0.0257,0.0306,0.0322,0.0372,0.0403,0.0314,0.0312,0.0311,0.031,0,-0.0507,-0.0545,-0.0591,-0.0597,-0.0594,-0.0595,-0.0578,-0.0494,-0.0465,-0.0357,-0.0315,-0.0183,-0.0114,0.001,0.0154,0.015,0.0328,0.0345,0.0435,0.0436,0.0465,0.0466,0.0456,0.0456,0.0456,0.0456,0.0455,0,-0.0562,-0.0598,-0.0627,-0.0658,-0.0697,-0.0661,-0.0662,-0.0617,-0.0536,-0.0489,-0.0359,-0.0285,-0.0099,0.003,0.0149,0.0322,0.0327,0.0442,0.0472,0.0441,0.0439,0.0421,0.0416,0.0459,0.0458,0.0458,0.0457,0,-0.0613,-0.0632,-0.0693,-0.072,-0.0731,-0.0759,-0.0746,-0.0734,-0.0645,-0.0577,-0.0544,-0.0356,-0.0174,0.0001,0.0215,0.0318,0.0476,0.053,0.0466,0.0488,0.0538,0.0529,0.065,0.0652,0.0654,0.0655,0.0656,0,-0.0643,-0.0683,-0.0753,-0.0798,-0.082,-0.085,-0.0863,-0.0802,-0.0776,-0.0612,-0.0582,-0.0384,-0.0218,0.0092,0.031,0.0528,0.0517,0.0614,0.0615,0.0547,0.0564,0.0552,0.0541,0.0619,0.062,0.0621,0.0621,0,-0.07,-0.0726,-0.0782,-0.0877,-0.0926,-0.0965,-0.0975,-0.0973,-0.0867,-0.0766,-0.0594,-0.0441,-0.0119,0.0157,0.0425,0.0538,0.058,0.0632,0.0604,0.0569,0.0525,0.0539,0.0528,0.0626,0.0625,0.0625,0.0625,0.0624,-0.0735,-0.0791,-0.0867,-0.0953,-0.1013,-0.106,-0.1079,-0.1036,-0.0966,-0.0779,-0.0628,-0.0351,-0.0093,0.0328,0.0511,0.0667,0.0666,0.0701,0.0697,0.0693,0.0669,0.0629,0.0743,0.0743,0.0744,0.0744,0.0744,0,-0.0773,-0.0841,-0.0932,-0.1033,-0.11,-0.111,-0.1129,-0.1093,-0.099,-0.0768,-0.0553,-0.0235,0.0081,0.0326,0.0605,0.0767,0.0741,0.0762,0.0709,0.0704,0.0699,0.0673,0.075,0.0751,0.0751,0.0752,0,0,-0.0799,-0.0891,-0.0944,-0.1076,-0.1138,-0.1184,-0.1189,-0.1102,-0.0948,-0.0703,-0.0471,-0.0186,0.0121,0.0317,0.0511,0.0649,0.0626,0.0643,0.062,0.0529,0.0523,0.0647,0.0599,0,0,0,0,0]}],[{"header":{"parameterUnit":"m.s-1","parameterCategory":2,"la1":30.2991,"la2":30.254,"lo1":-89.0895,"lo2":-89.0444,"dy":0.0017,"dx":0.0017,"nx":28,"ny":28,"refTime":"2024-07-22T09:00:00:Z","depth":"4","parameterNumber":2,"parameterNumberName":"U-component_of_CURRENTS"},"data":[0,0,0,0,0,0,0,0,0,0,0,0,0,0,0,0,0,0,0,0,0,0,0,0,0,0,0,0,0,0,0,0,0,0,0,0,0,0,0,0,0,0,0,0,0,0,0,0,0,0,0,0,0,0,0,0,0,0,-0.1583,-0.1584,0,-0.1653,-0.1654,-0.1654,-0.1697,-0.1697,-0.1697,-0.1698,-0.1762,-0.1763,-0.1764,0,0,0,0,0,0,0,0,0,0,0,0,0,-0.1484,-0.1486,-0.1583,-0.1584,-0.1585,-0.1653,-0.1654,-0.1655,-0.1697,-0.1697,-0.1698,-0.1698,-0.1761,-0.1763,-0.1764,0,0,0,0,0,0,0,0,0,0,0,0,0,-0.1537,-0.1486,-0.1583,-0.1615,-0.1619,-0.1653,-0.1654,-0.1655,-0.1697,-0.1697,-0.1698,-0.1698,-0.1761,-0.1763,-0.1765,-0.1767,0,0,-0.1771,-0.1772,0,0,0,0,0,0,0,0,-0.1534,-0.154,-0.1609,-0.1613,-0.1617,-0.1668,-0.1643,-0.1693,-0.1696,-0.1666,-0.1698,-0.1698,-0.173,-0.1735,-0.1745,-0.177,-0.1773,-0.1771,-0.1773,-0.1773,-0.1774,0,0,0,0,0,0,0,-0.153,-0.1537,-0.1609,-0.1611,-0.1615,-0.1626,-0.1634,-0.1652,-0.1693,-0.1668,-0.1672,-0.1682,-0.1732,-0.1743,-0.1747,-0.1774,-0.1771,-0.1773,-0.1774,-0.1775,-0.1861,-0.1862,0,0,0,0,0,0,-0.1524,-0.1534,-0.1607,-0.1612,-0.1578,-0.1627,-0.1636,-0.165,-0.1693,-0.1701,-0.1681,-0.1684,-0.1739,-0.1744,-0.1749,-0.1824,-0.1773,-0.1775,-0.1777,-0.186,-0.1861,-0.1862,0,0,0,0,0,0,-0.1522,-0.153,-0.1604,-0.1575,-0.1586,-0.1629,-0.1644,-0.1651,-0.1688,-0.1703,-0.1711,-0.1713,-0.174,-0.1746,-0.1787,-0.1824,-0.1776,-0.1778,-0.1859,-0.186,-0.1862,-0.1929,0,0,0,0,0,0,-0.1519,-0.1529,-0.1549,-0.1575,-0.1587,-0.164,-0.1644,-0.1652,-0.1692,-0.1696,-0.1733,-0.1738,-0.1741,-0.1784,-0.1789,-0.1826,-0.178,-0.1857,-0.1859,-0.1861,-0.1925,-0.1933,-0.1939,0,0,0,0,0,-0.1515,-0.1536,-0.155,-0.156,-0.161,-0.1641,-0.1649,-0.1679,-0.1693,-0.1713,-0.1739,-0.1738,-0.18,-0.1787,-0.1793,-0.1831,-0.1856,-0.1859,-0.1861,-0.1922,-0.1931,-0.1939,0,0,0,0,0,0,-0.1506,-0.1543,-0.1559,-0.1592,-0.1623,-0.1649,-0.1677,-0.1694,-0.1731,-0.1742,-0.1754,-0.1761,-0.1809,-0.1807,-0.1792,-0.1859,-0.1827,-0.1831,-0.1872,-0.188,-0.1887,-0.1886,-0.1782,0,0,0,0,0,-0.1512,-0.1539,-0.1573,-0.1601,-0.1621,-0.1654,-0.1676,-0.1696,-0.1725,-0.1743,-0.177,-0.1795,-0.1819,-0.184,-0.1857,-0.1896,-0.1878,-0.1922,-0.1929,-0.1935,-0.1937,-0.194,-0.1947,-0.187,-0.187,-0.187,0,0,-0.1518,-0.1542,-0.1559,-0.1602,-0.1631,-0.1668,-0.1669,-0.171,-0.1748,-0.1743,-0.181,-0.1821,-0.1833,-0.1878,-0.1899,-0.1885,-0.1946,-0.1938,-0.1943,-0.1941,-0.1943,-0.195,-0.1957,-0.1872,-0.1871,-0.1871,0,0,-0.1533,-0.1566,-0.1592,-0.1623,-0.167,-0.1692,-0.171,-0.1754,-0.1784,-0.1837,-0.1844,-0.1876,-0.1921,-0.1935,-0.1946,-0.1998,-0.1979,-0.2009,-0.205,-0.2053,-0.2059,-0.2065,-0.2046,-0.2049,-0.2015,-0.2016,-0.2016,0,-0.1541,-0.1578,-0.1605,-0.164,-0.1673,-0.1707,-0.1747,-0.1783,-0.1836,-0.1861,-0.1868,-0.1933,-0.1947,-0.1993,-0.2015,-0.2016,-0.2005,-0.2021,-0.2062,-0.2067,-0.2071,-0.2051,-0.2053,-0.2019,-0.2019,-0.2018,-0.2018,0,-0.1569,-0.1612,-0.1633,-0.1691,-0.1729,-0.1768,-0.1818,-0.1864,-0.1904,-0.1932,-0.1992,-0.201,-0.2043,-0.2059,-0.2059,-0.2102,-0.2079,-0.2068,-0.2042,-0.2083,-0.2059,-0.206,-0.2024,-0.2023,-0.2022,-0.2021,0,0,-0.1547,-0.1636,-0.1646,-0.1685,-0.176,-0.179,-0.1862,-0.1924,-0.197,-0.2021,-0.207,-0.2119,-0.2122,-0.2134,-0.2138,-0.2151,-0.2174,-0.2131,-0.213,-0.2113,-0.217,-0.202,-0.2007,-0.2175,-0.2176,-0.2176,-0.2139,0,-0.1563,-0.1631,-0.1676,-0.1754,-0.1794,-0.1855,-0.1918,-0.198,-0.2029,-0.2085,-0.2111,-0.2156,-0.2153,-0.2173,-0.2188,-0.2177,-0.2182,-0.2184,-0.2132,-0.213,-0.1993,-0.2005,-0.2179,-0.214,-0.214,-0.214,-0.214,0,-0.1565,-0.1615,-0.1689,-0.1787,-0.1813,-0.1869,-0.1966,-0.2024,-0.2103,-0.214,-0.2184,-0.2202,-0.2237,-0.2222,-0.2227,-0.223,-0.2207,-0.2194,-0.2192,-0.2028,-0.1982,-0.2091,-0.2142,-0.2142,-0.2142,-0.2142,-0.2142,0,-0.1516,-0.162,-0.1679,-0.1714,-0.1831,-0.1884,-0.1948,-0.2039,-0.2088,-0.2168,-0.2202,-0.2242,-0.2261,-0.2253,-0.2228,-0.2234,-0.2212,-0.2209,-0.2051,-0.204,-0.2158,-0.2153,-0.2205,-0.2205,-0.2205,-0.2205,-0.2206,0,-0.1494,-0.1546,-0.1667,-0.17,-0.1777,-0.1867,-0.1947,-0.2017,-0.2107,-0.2146,-0.2219,-0.2234,-0.2272,-0.2264,-0.2237,-0.2132,-0.2213,-0.2049,-0.2019,-0.2186,-0.2184,-0.2159,-0.2154,-0.2204,-0.2204,-0.2205,-0.2205,0,-0.1422,-0.1506,-0.1577,-0.1709,-0.1754,-0.1805,-0.1935,-0.1979,-0.2084,-0.2135,-0.216,-0.2232,-0.2208,-0.2218,-0.2194,-0.2118,-0.2051,-0.1996,-0.2162,-0.2143,-0.1876,-0.1875,-0.181,-0.1804,-0.1799,-0.1795,-0.1792,0,-0.1388,-0.1418,-0.1557,-0.1594,-0.1658,-0.175,-0.1806,-0.1942,-0.1981,-0.2101,-0.2101,-0.2136,-0.2156,-0.1994,-0.2025,-0.1947,-0.1926,-0.188,-0.1889,-0.1858,-0.1836,-0.1842,-0.1848,-0.1784,-0.1783,-0.1782,-0.1781,0,-0.1313,-0.1371,-0.1426,-0.1501,-0.1571,-0.164,-0.173,-0.1748,-0.1884,-0.2003,-0.1977,-0.1953,-0.1921,-0.1881,-0.1832,-0.1782,-0.1904,-0.183,-0.184,-0.1848,-0.1826,-0.1811,-0.1822,-0.1764,-0.1767,-0.1768,-0.1769,0,-0.1247,-0.1259,-0.1331,-0.138,-0.1462,-0.1492,-0.1564,-0.1605,-0.1666,-0.1812,-0.1788,-0.1826,-0.1895,-0.1793,-0.1746,-0.1684,-0.1659,-0.1603,-0.1625,-0.1644,-0.1605,-0.1553,-0.1371,0,0,0,0,0,-0.1172,-0.1167,-0.1202,-0.125,-0.1322,-0.1368,-0.1492,-0.1567,-0.1705,-0.1638,-0.1713,-0.1674,-0.1609,-0.1626,-0.1522,-0.1661,-0.1663,-0.1533,-0.1611,-0.1672,-0.1691,-0.166,0,0,0,0,0,0,-0.1122,-0.1149,-0.1154,-0.1124,-0.1126,-0.1195,-0.1265,-0.1366,-0.1344,-0.1483,-0.1451,-0.1554,-0.151,-0.1627,-0.1477,-0.1482,-0.1492,-0.1568,-0.1563,-0.1661,-0.1679,-0.1694,-0.1669,0,0,0,0,0]},{"header":{"parameterUnit":"m.s-1","parameterCategory":2,"la1":30.2991,"la2":30.254,"lo1":-89.0895,"lo2":-89.0444,"dy":0.0017,"dx":0.0017,"nx":28,"ny":28,"refTime":"2024-07-22T09:00:00:Z","depth":"4","parameterNumber":3,"parameterNumberName":"V-component_of_CURRENTS"},"data":[0,0,0,0,0,0,0,0,0,0,0,0,0,0,0,0,0,0,0,0,0,0,0,0,0,0,0,0,0,0,0,0,0,0,0,0,0,0,0,0,0,0,0,0,0,0,0,0,0,0,0,0,0,0,0,0,0,0,-0.014,-0.014,0,-0.0108,-0.0107,-0.0107,-0.007,-0.0069,-0.0069,-0.0068,0.0005,0.0006,0.0008,0,0,0,0,0,0,0,0,0,0,0,0,0,-0.0144,-0.0145,-0.014,-0.014,-0.014,-0.0108,-0.0107,-0.0107,-0.007,-0.0069,-0.0069,-0.0068,0.0004,0.0006,0.0008,0,0,0,0,0,0,0,0,0,0,0,0,0,-0.013,-0.0145,-0.014,-0.0118,-0.0116,-0.0108,-0.0107,-0.0107,-0.007,-0.0069,-0.0068,-0.0068,0.0004,0.0006,0.0008,0.0008,0,0,0.0015,0.0016,0,0,0,0,0,0,0,0,-0.0131,-0.0129,-0.0122,-0.012,-0.0117,-0.0093,-0.0082,-0.0067,-0.007,-0.0087,-0.0068,-0.0067,-0.0025,-0.002,-0.0015,0.0011,0.0014,0.0015,0.0017,0.0018,0.0018,0,0,0,0,0,0,0,-0.0132,-0.0131,-0.0127,-0.0121,-0.0119,-0.01,-0.0098,-0.0079,-0.0059,-0.0085,-0.0083,-0.008,-0.0023,-0.0018,-0.0013,0.0015,0.0015,0.0017,0.0019,0.002,0.0061,0.0061,0,0,0,0,0,0,-0.0139,-0.0132,-0.0128,-0.0126,-0.0123,-0.0101,-0.0098,-0.0101,-0.006,-0.0054,-0.0081,-0.0079,-0.0022,-0.0016,-0.001,0.0014,0.0018,0.002,0.0021,0.0061,0.0061,0.0061,0,0,0,0,0,0,-0.014,-0.014,-0.0129,-0.0128,-0.0126,-0.0102,-0.0105,-0.01,-0.0095,-0.0057,-0.005,-0.008,-0.0021,-0.0014,0.0007,0.0016,0.0021,0.0023,0.0061,0.0061,0.0061,0.0048,0,0,0,0,0,0,-0.014,-0.014,-0.0146,-0.0129,-0.0126,-0.0129,-0.0106,-0.01,-0.0095,-0.0091,-0.0054,-0.0047,-0.002,0.0003,0.0009,0.0019,0.0025,0.0062,0.0061,0.0061,0.0049,0.0047,0.0046,0,0,0,0,0,-0.014,-0.0153,-0.0147,-0.0146,-0.0135,-0.013,-0.0127,-0.0106,-0.0096,-0.0098,-0.007,-0.0048,0.0005,0.0005,0.0012,0.0023,0.0062,0.0061,0.0061,0.0049,0.0047,0.0046,0,0,0,0,0,0,-0.0158,-0.015,-0.0143,-0.0152,-0.0144,-0.0124,-0.0125,-0.0112,-0.0093,-0.009,-0.0052,-0.0042,-0.002,-0.0004,-0.0005,0.0031,0.0037,0.0038,0.0026,0.0024,0.0023,0.0025,0.0026,0,0,0,0,0,-0.0166,-0.0173,-0.016,-0.0169,-0.0166,-0.0147,-0.0143,-0.0132,-0.0113,-0.0104,-0.0076,-0.0047,-0.0018,-0.0002,0.002,0.0038,0.0069,0.0048,0.0047,0.0046,0.005,0.0116,0.0122,0.0059,0.0059,0.0059,0,0,-0.0175,-0.0172,-0.0176,-0.0173,-0.0164,-0.0165,-0.0143,-0.0143,-0.0136,-0.0099,-0.0082,-0.0053,-0.0017,0.0007,0.0019,0.0024,0.0075,0.0045,0.0044,0.0049,0.0116,0.0123,0.0129,0.0058,0.0058,0.0058,0,0,-0.02,-0.0195,-0.0209,-0.0206,-0.02,-0.0184,-0.0186,-0.0169,-0.0153,-0.014,-0.0104,-0.0068,-0.004,0.0002,0.0025,0.0026,0.0063,0.0026,0.0027,0.009,0.0097,0.0103,0.0131,0.014,0.0028,0.0028,0.0028,0,-0.0211,-0.0228,-0.0212,-0.0224,-0.0224,-0.0195,-0.0206,-0.0186,-0.0163,-0.0144,-0.0139,-0.0066,-0.0036,0.0018,0.002,0.0027,0.0054,0.0033,0.0091,0.0098,0.0104,0.0132,0.0142,0.0028,0.0028,0.0028,0.0028,0,-0.0244,-0.0258,-0.0266,-0.0268,-0.0262,-0.0271,-0.0241,-0.0227,-0.0205,-0.0175,-0.0127,-0.0078,-0.0032,-0.0015,0.0004,0.0064,0.0064,0.0081,0.0099,0.011,0.0138,0.0149,0.0027,0.0027,0.0027,0.0027,0,0,-0.0267,-0.0287,-0.029,-0.0306,-0.0289,-0.0293,-0.0271,-0.0241,-0.0222,-0.018,-0.0143,-0.008,-0.0045,-0.0018,0.0021,0.008,0.0143,0.0095,0.0099,0.0129,0.0261,0.023,0.0238,0.0175,0.0177,0.0179,0.0255,0,-0.0298,-0.0341,-0.0331,-0.036,-0.0377,-0.0342,-0.0324,-0.0289,-0.0245,-0.0201,-0.0122,-0.0079,-0.0048,-0.0025,0.0042,0.0119,0.0173,0.0119,0.024,0.0243,0.0221,0.0251,0.0185,0.0263,0.0266,0.0268,0.0269,0,-0.0329,-0.0358,-0.0398,-0.0414,-0.0416,-0.0422,-0.0387,-0.0368,-0.0283,-0.0246,-0.0171,-0.011,-0.0017,0.0004,0.0153,0.0116,0.0183,0.0245,0.025,0.0236,0.0233,0.0255,0.0289,0.0287,0.0286,0.0284,0.0283,0,-0.0363,-0.0401,-0.044,-0.0448,-0.0453,-0.0458,-0.0451,-0.0385,-0.0365,-0.0272,-0.0238,-0.0118,-0.006,0.0055,0.0171,0.0169,0.033,0.0344,0.038,0.0377,0.0388,0.0381,0.0454,0.0454,0.0454,0.0453,0.0453,0,-0.0398,-0.0432,-0.0468,-0.0495,-0.0535,-0.0512,-0.0521,-0.0486,-0.0422,-0.0384,-0.0272,-0.0209,-0.0041,0.007,0.0173,0.0301,0.0332,0.0388,0.0406,0.0375,0.0366,0.0394,0.0386,0.0456,0.0456,0.0455,0.0454,0,-0.0428,-0.045,-0.0508,-0.0543,-0.056,-0.0589,-0.0596,-0.0589,-0.0517,-0.0463,-0.0434,-0.0272,-0.0117,0.0034,0.0224,0.0293,0.0421,0.0455,0.0388,0.04,0.0424,0.0414,0.0514,0.0514,0.0514,0.0514,0.0513,0,-0.0445,-0.048,-0.0559,-0.0605,-0.0631,-0.0671,-0.0691,-0.0649,-0.0629,-0.0495,-0.0467,-0.0302,-0.0184,0.0062,0.0213,0.0403,0.0427,0.0476,0.0478,0.0428,0.0436,0.0426,0.0417,0.0513,0.0513,0.0513,0.0513,0,-0.0481,-0.0513,-0.0566,-0.0664,-0.0719,-0.0768,-0.0788,-0.0781,-0.0699,-0.0635,-0.0468,-0.0307,-0.0132,0.0066,0.0206,0.0343,0.044,0.0475,0.0477,0.048,0.0428,0.0434,0.0425,0.0512,0.0512,0.0512,0.0513,0,-0.0507,-0.0556,-0.0631,-0.0714,-0.079,-0.0838,-0.0847,-0.0799,-0.0762,-0.0596,-0.0542,-0.0319,-0.0176,0.0034,0.0165,0.0293,0.0332,0.0365,0.0373,0.0375,0.031,0.0221,0.0269,0,0,0,0,0,-0.0526,-0.0587,-0.0672,-0.0766,-0.084,-0.0876,-0.0893,-0.0877,-0.0795,-0.0682,-0.0603,-0.0426,-0.0165,-0.0043,0.0083,0.0128,0.0316,0.0274,0.0347,0.0509,0.051,0.0453,0,0,0,0,0,0,-0.0545,-0.0626,-0.0675,-0.0785,-0.085,-0.092,-0.0931,-0.0882,-0.0804,-0.069,-0.0549,-0.0415,-0.0173,-0.0234,0.0083,0.0125,0.0182,0.0412,0.0414,0.0508,0.0509,0.051,0.0452,0,0,0,0,0]}]]